Cloud_Cover
0 0 0 0 0 0 0 0 0 0 0 0 0 0 0 0 0 0 0 0 0 0 0 5 3 15 22 14 100 53 100 100 98 96 100 100 100 100 94 56 94 100 99 85 11 10 13 99 11
0 0 0 0 0 0 0 0 0 0 0 0 0 0 0 0 0 0 0 23 0 0 0 0 0 4 0 3 1 10 2 20 100 100 100 94 100 59 100 18 6 96 100 100 100 99 59 15 7
0 0 0 0 0 0 0 0 0 0 0 0 0 0 0 0 0 0 0 2 1 12 0 0 0 0 0 1 61 100 82 39 43 100 90 92 100 100 73 86 15 60 86 100 100 100 100 100 100
0 0 0 0 0 0 0 0 0 0 0 0 0 0 0 0 0 0 0 0 5 15 1 0 0 0 0 1 5 60 100 20 2 72 98 60 70 89 97 100 100 100 17 32 93 100 100 100 100
0 0 0 0 0 0 0 0 0 0 0 0 0 0 0 0 0 0 0 0 18 16 3 0 0 0 0 0 0 0 0 6 3 0 7 8 8 61 57 82 71 58 81 0 4 5 94 100 64
0 0 0 0 0 0 0 0 0 0 0 0 0 0 0 0 0 0 0 0 0 2 3 31 19 0 0 0 0 0 0 0 0 2 15 31 13 2 0 0 0 0 0 0 0 0 0 0 1
0 0 0 0 0 0 0 0 0 0 0 0 0 0 0 0 0 0 0 0 0 0 7 4 16 0 0 0 0 0 0 0 0 0 0 0 0 0 0 0 0 0 0 0 0 0 0 0 0
0 0 0 0 0 0 0 0 0 0 0 0 0 0 0 0 0 0 0 0 0 0 0 31 56 7 0 36 1 0 0 0 0 0 0 0 0 16 0 4 0 0 0 0 0 0 0 0 0
0 0 0 0 0 0 0 0 0 0 0 0 0 0 0 0 0 0 0 0 2 3 89 20 100 65 92 100 96 20 11 100 61 0 0 70 35 94 100 86 0 0 0 1 0 0 0 0 0
1 0 0 0 0 0 0 0 0 0 0 0 0 0 0 0 0 0 0 0 4 12 93 33 62 100 100 95 16 31 49 94 100 18 60 18 78 95 100 80 0 0 0 0 0 0 0 0 0
5 5 0 3 0 0 0 0 0 0 0 0 0 0 0 0 0 0 0 0 0 6 59 45 14 26 99 100 96 28 26 92 19 31 45 88 100 79 100 100 28 2 0 0 0 0 0 0 0
0 2 0 0 0 0 0 0 0 0 0 0 0 0 0 0 0 0 0 0 0 0 0 0 15 16 22 16 70 100 41 69 100 94 59 60 99 96 91 98 100 11 15 8 7 5 0 0 0
5 14 5 0 0 0 0 0 0 0 0 0 0 0 0 0 0 0 0 0 0 0 0 0 0 0 0 0 58 100 100 100 100 100 90 96 99 65 100 100 100 100 94 54 12 21 4 4 10
14 88 21 0 0 0 0 0 0 0 0 0 0 0 0 0 0 0 0 0 0 0 0 0 3 0 0 3 92 100 100 100 100 100 100 100 100 96 100 100 100 99 100 100 100 100 87 65 100
100 100 77 5 3 0 0 0 0 0 0 0 0 0 0 0 0 0 0 0 0 0 0 0 28 38 46 35 96 84 100 100 100 100 100 100 100 100 100 100 100 100 100 100 100 100 100 100 63
78 71 36 5 5 0 2 4 0 0 0 0 0 0 0 0 0 0 0 0 0 0 0 0 55 100 100 90 97 100 100 100 100 100 100 100 100 100 100 99 100 100 100 100 100 100 99 50 21
5 5 73 37 5 0 0 5 0 0 0 4 3 0 0 0 0 0 0 0 0 0 0 0 37 100 100 100 100 90 100 80 100 100 100 100 100 100 100 100 100 100 100 100 63 5 5 0 0
5 13 29 99 65 0 0 5 5 5 3 3 0 0 0 0 0 0 0 0 0 0 0 0 48 100 97 100 100 98 100 100 100 100 100 100 100 100 100 100 100 95 18 5 1 5 5 5 5
45 5 8 99 6 0 0 4 5 5 5 5 5 0 0 0 0 0 0 0 0 1 19 5 98 96 100 100 100 100 100 100 100 100 100 100 100 37 35 40 40 5 5 5 5 5 5 5 6
8 6 56 6 2 5 3 4 5 5 5 5 5 5 0 0 0 0 0 0 0 4 16 11 81 100 98 92 100 100 100 100 100 100 100 100 50 6 5 5 5 5 5 38 50 90 80 28 5
100 12 69 5 5 2 0 0 1 5 16 9 5 4 0 0 0 0 0 0 0 9 31 23 19 100 100 100 45 60 100 100 100 100 100 100 63 5 19 5 5 5 5 7 43 51 58 12 21
100 60 24 60 3 0 0 0 5 18 19 9 5 0 0 0 0 0 0 0 0 0 8 4 14 21 99 78 39 99 99 94 100 100 100 100 17 5 5 5 5 5 5 5 5 6 21 61 83
44 100 67 5 0 0 0 0 23 100 98 47 2 0 0 0 0 0 0 0 0 2 23 11 21 82 32 100 100 100 100 100 100 100 100 100 25 14 5 5 5 5 26 73 98 99 53 84 100
95 8 50 10 0 0 0 0 95 82 78 97 4 0 0 0 0 0 0 0 0 1 32 19 73 100 49 44 84 100 100 100 100 100 100 78 64 25 22 41 32 8 48 72 99 100 100 100 100
100 100 100 7 0 0 0 0 83 100 34 5 5 1 0 0 0 0 0 0 5 12 46 56 100 100 84 61 98 100 100 100 100 100 100 74 80 60 94 27 5 7 94 82 99 83 100 100 85
100 100 24 7 4 0 0 0 0 6 95 0 5 5 5 0 0 0 0 0 0 0 16 53 100 100 41 88 100 100 100 100 100 100 96 92 98 72 5 5 53 96 98 93 100 43 21 8 5
86 26 82 58 24 10 0 0 0 4 5 5 0 0 4 5 1 0 0 0 0 0 0 48 100 93 15 100 100 100 100 100 100 100 97 96 10 19 97 100 100 100 100 100 100 78 92 68 5
60 78 64 76 7 4 0 0 4 10 5 5 2 0 0 0 0 0 0 3 1 0 0 54 97 16 14 100 100 100 100 100 100 89 30 54 100 100 100 100 100 100 100 100 87 61 82 53 28
100 63 88 8 2 2 4 7 5 6 5 5 5 5 1 0 0 0 0 1 2 0 0 16 62 0 49 100 100 100 100 100 94 34 100 100 90 99 100 100 100 100 100 100 76 9 10 91 22
5 5 5 5 5 26 5 23 29 1 1 5 0 0 0 0 3 5 5 5 2 4 0 0 0 2 57 100 100 100 100 90 83 100 100 100 100 100 100 100 100 100 100 99 100 100 100 100 100